Simultaneous Nadir Overpasses (SNOs) Predictions

Prediction of SNOs between GOES-16 and NOAA-21 Satellite Orbit:

Table of predicted SNOs for the next 14.0 days since TLE Epoch: 12/16/2022
Index Date Time (GOES-16) GOES-16 Lat,Lon NOAA-21 Lat,Lon Distance(km) Time Diff (sec)
1 12/16/2022 06:27:56 -0.02, -75.18 0.15, -75.93 85.45 80
2 12/17/2022 06:09:38 -0.02, -75.19 -1.00, -70.86 493.12 80
3 12/18/2022 18:25:32 0.02, -75.20 0.01, -75.35 17.15 80
4 12/21/2022 06:22:51 -0.01, -75.21 -0.12, -74.70 57.96 80
5 12/22/2022 18:41:25 0.01, -75.22 -0.89, -79.19 452.43 80
6 12/23/2022 18:23:07 0.00, -75.23 0.26, -74.12 126.51 80
7 12/25/2022 06:41:24 -0.00, -75.23 0.73, -78.54 376.60 80
8 12/26/2022 06:17:45 0.00, -75.24 -0.38, -73.46 202.56 80
9 12/27/2022 18:36:20 -0.00, -75.26 -0.58, -77.96 307.15 80
10 12/28/2022 18:18:00 -0.00, -75.27 0.53, -72.88 272.73 80
